Tracking 19563 objects as of 20-Mar-2019
HD Live streaming from Space Station
objects crossing your sky now

FLOCK 3P 64

Track FLOCK 3P 64 now!
10-day predictions
FLOCK 3P 64 is classified as:


NORAD ID: 42034
Int'l Code: 2017-008CQ
Perigee: 491.2 km
Apogee: 503.8 km
Inclination: 97.4 °
Period: 94.4 minutes
Semi major axis: 6868 km
RCS: Unknown
Launch date: February 15, 2017
Source: United States (US)
Launch site: SRIHARIKOTA (SRI)
aabbcc
Your satellite tracking list
Your tracking list is empty




NASA's NSSDC Master Catalog

Two Line Element Set (TLE):
1 42034U 17008CQ  19078.46857430 +.00001343 +00000-0 +56425-4 0  9998
2 42034 097.4161 146.4332 0009170 121.0981 239.1157 15.25143163116057
Source of the keplerian elements: AFSPC